TimeCST,TemperatureF,Dew PointF,Humidity,Sea Level PressureIn,VisibilityMPH,Wind Direction,Wind SpeedMPH,Gust SpeedMPH,PrecipitationIn,Events,Conditions,WindDirDegrees,DateUTC
12:52 AM,48.0,34.0,58,30.20,10.0,SSE,13.8,-,N/A,,Clear,160,2013-11-04 06:52:00
1:52 AM,46.9,35.1,63,30.20,10.0,SSE,13.8,21.9,N/A,,Clear,150,2013-11-04 07:52:00
2:52 AM,46.9,35.1,63,30.18,10.0,SE,12.7,23.0,N/A,,Clear,140,2013-11-04 08:52:00
3:52 AM,46.9,36.0,66,30.19,10.0,SE,12.7,21.9,N/A,,Clear,140,2013-11-04 09:52:00
4:52 AM,46.9,36.0,66,30.20,10.0,SSE,12.7,21.9,N/A,,Clear,150,2013-11-04 10:52:00
5:52 AM,46.9,36.0,66,30.18,10.0,SSE,16.1,-,N/A,,Clear,150,2013-11-04 11:52:00
6:52 AM,46.9,36.0,66,30.19,10.0,SSE,18.4,24.2,N/A,,Clear,150,2013-11-04 12:52:00
7:52 AM,46.9,37.0,68,30.19,10.0,SSE,13.8,-,N/A,,Clear,150,2013-11-04 13:52:00
8:52 AM,48.9,37.0,64,30.19,10.0,SSE,17.3,-,N/A,,Clear,160,2013-11-04 14:52:00
9:52 AM,51.1,37.9,61,30.17,10.0,SSE,21.9,-,N/A,,Clear,160,2013-11-04 15:52:00
10:52 AM,53.1,39.0,59,30.17,10.0,South,13.8,-,N/A,,Clear,170,2013-11-04 16:52:00
11:52 AM,55.9,39.9,55,30.16,10.0,South,17.3,24.2,N/A,,Clear,180,2013-11-04 17:52:00
12:52 PM,55.9,41.0,57,30.14,10.0,South,18.4,26.5,N/A,,Partly Cloudy,180,2013-11-04 18:52:00
1:52 PM,55.9,41.0,57,30.13,10.0,South,16.1,27.6,N/A,,Overcast,180,2013-11-04 19:52:00
2:52 PM,55.9,41.0,57,30.12,10.0,South,15.0,24.2,N/A,,Overcast,170,2013-11-04 20:52:00
3:52 PM,55.0,42.1,62,30.12,10.0,South,16.1,21.9,N/A,,Partly Cloudy,170,2013-11-04 21:52:00
4:52 PM,55.0,42.1,62,30.15,10.0,South,13.8,-,N/A,,Overcast,180,2013-11-04 22:52:00
5:52 PM,55.0,43.0,64,30.17,10.0,South,12.7,-,N/A,,Overcast,180,2013-11-04 23:52:00
6:52 PM,54.0,43.0,66,30.19,10.0,South,13.8,-,N/A,,Overcast,190,2013-11-05 00:52:00
7:52 PM,54.0,43.0,66,30.19,10.0,South,15.0,-,N/A,,Overcast,180,2013-11-05 01:52:00
8:52 PM,54.0,44.1,69,30.20,10.0,South,15.0,20.7,N/A,,Overcast,180,2013-11-05 02:52:00
9:52 PM,53.1,44.1,71,30.22,10.0,South,11.5,-,N/A,,Overcast,180,2013-11-05 03:52:00
10:52 PM,53.1,44.1,71,30.22,10.0,South,10.4,-,N/A,,Overcast,180,2013-11-05 04:52:00
11:52 PM,53.1,45.0,74,30.22,10.0,South,9.2,-,N/A,,Overcast,180,2013-11-05 05:52:00